TimeCDT,TemperatureF,Dew PointF,Humidity,Sea Level PressureIn,VisibilityMPH,Wind Direction,Wind SpeedMPH,Gust SpeedMPH,PrecipitationIn,Events,Conditions,WindDirDegrees,DateUTC
12:15 AM,69.8,55.4,60,30.02,10.0,Calm,Calm,-,N/A,,Clear,0,2013-05-27 05:15:00
12:35 AM,68.0,55.4,64,30.03,10.0,NW,3.5,-,N/A,,Clear,310,2013-05-27 05:35:00
12:55 AM,68.0,55.4,64,30.03,10.0,Calm,Calm,-,N/A,,Clear,0,2013-05-27 05:55:00
1:15 AM,66.2,55.4,68,30.03,10.0,SSE,3.5,-,N/A,,Clear,150,2013-05-27 06:15:00
1:55 AM,66.2,55.4,68,30.02,10.0,SSE,3.5,-,N/A,,Clear,150,2013-05-27 06:55:00
2:15 AM,64.4,55.4,73,30.02,10.0,Calm,Calm,-,N/A,,Clear,0,2013-05-27 07:15:00
2:35 AM,64.4,53.6,68,30.02,10.0,Calm,Calm,-,N/A,,Clear,0,2013-05-27 07:35:00
2:55 AM,64.4,55.4,73,30.03,10.0,Calm,Calm,-,N/A,,Clear,0,2013-05-27 07:55:00
3:15 AM,64.4,53.6,68,30.02,10.0,ESE,3.5,-,N/A,,Clear,110,2013-05-27 08:15:00
3:35 AM,64.4,55.4,73,30.02,10.0,Calm,Calm,-,N/A,,Mostly Cloudy,0,2013-05-27 08:35:00
3:55 AM,64.4,55.4,73,30.01,10.0,ESE,3.5,-,N/A,,Scattered Clouds,120,2013-05-27 08:55:00
4:15 AM,64.4,55.4,73,30.01,10.0,Calm,Calm,-,N/A,,Partly Cloudy,0,2013-05-27 09:15:00
4:35 AM,64.4,55.4,73,30.01,10.0,Calm,Calm,-,N/A,,Scattered Clouds,0,2013-05-27 09:35:00
4:55 AM,64.4,55.4,73,30.01,10.0,SSE,4.6,-,N/A,,Mostly Cloudy,160,2013-05-27 09:55:00
5:35 AM,66.2,55.4,68,30.01,10.0,Calm,Calm,-,N/A,,Scattered Clouds,0,2013-05-27 10:35:00
6:15 AM,66.2,55.4,68,30.01,10.0,SE,4.6,-,N/A,,Mostly Cloudy,130,2013-05-27 11:15:00
6:35 AM,66.2,55.4,68,29.99,10.0,SSE,4.6,-,N/A,,Overcast,160,2013-05-27 11:35:00
7:15 AM,69.8,57.2,64,29.99,10.0,Calm,Calm,-,N/A,,Partly Cloudy,0,2013-05-27 12:15:00
7:35 AM,71.6,57.2,60,29.99,10.0,South,5.8,-,N/A,,Clear,170,2013-05-27 12:35:00
7:55 AM,71.6,57.2,60,29.99,10.0,South,6.9,-,N/A,,Clear,190,2013-05-27 12:55:00
8:15 AM,71.6,57.2,60,29.99,10.0,South,4.6,-,N/A,,Clear,190,2013-05-27 13:15:00
8:35 AM,73.4,59.0,61,29.99,10.0,South,5.8,-,N/A,,Clear,170,2013-05-27 13:35:00
8:55 AM,75.2,59.0,57,29.99,10.0,South,4.6,-,N/A,,Clear,170,2013-05-27 13:55:00
9:15 AM,75.2,60.8,61,29.99,10.0,South,9.2,-,N/A,,Clear,180,2013-05-27 14:15:00
9:35 AM,75.2,60.8,61,29.98,10.0,South,5.8,-,N/A,,Clear,190,2013-05-27 14:35:00
9:55 AM,77.0,60.8,57,29.98,10.0,SSW,10.4,-,N/A,,Clear,200,2013-05-27 14:55:00
10:15 AM,78.8,60.8,54,29.97,10.0,South,11.5,-,N/A,,Clear,180,2013-05-27 15:15:00
10:35 AM,78.8,60.8,54,29.96,10.0,SSW,9.2,16.1,N/A,,Scattered Clouds,210,2013-05-27 15:35:00
11:15 AM,80.6,60.8,51,29.95,10.0,South,9.2,-,N/A,,Partly Cloudy,190,2013-05-27 16:15:00
11:35 AM,80.6,60.8,51,29.96,10.0,South,10.4,-,N/A,,Partly Cloudy,180,2013-05-27 16:35:00
11:55 AM,82.4,60.8,48,29.96,10.0,South,8.1,-,N/A,,Partly Cloudy,190,2013-05-27 16:55:00
12:15 PM,82.4,60.8,48,29.96,10.0,South,9.2,-,N/A,,Scattered Clouds,180,2013-05-27 17:15:00
12:35 PM,82.4,60.8,48,29.96,10.0,South,8.1,16.1,N/A,,Scattered Clouds,190,2013-05-27 17:35:00
1:15 PM,82.4,59.0,45,29.96,10.0,South,8.1,17.3,N/A,,Partly Cloudy,170,2013-05-27 18:15:00
1:35 PM,82.4,59.0,45,29.96,10.0,SSW,8.1,16.1,N/A,,Partly Cloudy,210,2013-05-27 18:35:00
1:55 PM,82.4,59.0,45,29.95,10.0,SSW,13.8,19.6,N/A,,Unknown,200,2013-05-27 18:55:00
2:15 PM,82.4,59.0,45,29.95,10.0,South,5.8,17.3,N/A,,Unknown,170,2013-05-27 19:15:00
2:35 PM,82.4,59.0,45,29.94,10.0,SSW,11.5,18.4,N/A,,Unknown,200,2013-05-27 19:35:00
2:55 PM,82.4,59.0,45,29.93,10.0,South,8.1,16.1,N/A,,Unknown,180,2013-05-27 19:55:00
3:15 PM,82.4,59.0,45,29.92,10.0,SSE,8.1,-,N/A,,Unknown,160,2013-05-27 20:15:00
3:35 PM,82.4,59.0,45,29.92,10.0,South,9.2,18.4,N/A,,Unknown,190,2013-05-27 20:35:00
3:55 PM,82.4,59.0,45,29.91,10.0,South,9.2,18.4,N/A,,Unknown,190,2013-05-27 20:55:00
4:15 PM,80.6,57.2,45,29.91,10.0,South,9.2,18.4,N/A,,Unknown,180,2013-05-27 21:15:00
4:35 PM,80.6,59.0,48,29.90,10.0,South,6.9,-,N/A,,Unknown,180,2013-05-27 21:35:00
4:55 PM,80.6,59.0,48,29.90,10.0,SSE,9.2,16.1,N/A,,Unknown,160,2013-05-27 21:55:00
5:15 PM,80.6,60.8,51,29.90,10.0,SSE,5.8,-,N/A,,Unknown,150,2013-05-27 22:15:00
5:35 PM,80.6,60.8,51,29.89,10.0,SSE,8.1,-,N/A,,Unknown,150,2013-05-27 22:35:00
5:55 PM,80.6,60.8,51,29.90,10.0,SSE,4.6,-,N/A,,Unknown,160,2013-05-27 22:55:00
6:15 PM,80.6,59.0,48,29.89,10.0,SSE,6.9,-,N/A,,Unknown,160,2013-05-27 23:15:00
6:35 PM,78.8,59.0,51,29.89,10.0,SE,5.8,-,N/A,,Unknown,140,2013-05-27 23:35:00
6:55 PM,78.8,59.0,51,29.88,10.0,SSE,6.9,-,N/A,,Unknown,150,2013-05-27 23:55:00
7:15 PM,78.8,59.0,51,29.88,10.0,SSE,5.8,-,N/A,,Unknown,150,2013-05-28 00:15:00
7:35 PM,78.8,57.2,47,29.87,10.0,SSE,5.8,-,N/A,,Unknown,150,2013-05-28 00:35:00
7:55 PM,78.8,57.2,47,29.87,10.0,South,8.1,-,N/A,,Unknown,170,2013-05-28 00:55:00
8:15 PM,78.8,57.2,47,29.87,10.0,SSE,5.8,-,N/A,,Unknown,160,2013-05-28 01:15:00
8:35 PM,77.0,57.2,50,29.87,10.0,South,4.6,-,N/A,,Unknown,170,2013-05-28 01:35:00
8:55 PM,77.0,57.2,50,29.87,10.0,SSE,6.9,-,N/A,,Unknown,160,2013-05-28 01:55:00
9:15 PM,75.2,57.2,53,29.87,10.0,South,5.8,-,N/A,,Unknown,170,2013-05-28 02:15:00